Location: Caltech
(34.1382°N, 118.1253°W)
Time: 07:31:05
(UTC-07:00)

NOSS 3-2 (A) - Visible Passes

Search period start: 04 September 2015 00:00
Search period end: 14 September 2015 00:00
Orbit: 919 x 1289 km, 63.4° (Epoch: 01 September)

Date Brightness Start Highest point End Pass type
(mag) Time Alt. Az. Time Alt. Az. Time Alt. Az.
04 Sep 5.3 22:46:59 10° NNW 22:51:35 29° NNE 22:51:35 29° NNE visible
05 Sep 6.0 00:37:24 10° NW 00:38:57 17° NW 00:38:57 17° NW visible
05 Sep 5.5 22:02:14 10° N 22:07:28 22° NE 22:07:28 22° NE visible
05 Sep 5.6 23:51:54 10° NNW 23:54:50 27° NNW 23:54:50 27° NNW visible
06 Sep 5.7 21:17:54 10° N 21:21:34 14° NE 21:23:23 14° NE visible
06 Sep 5.1 23:06:38 10° NNW 23:10:47 35° N 23:10:47 35° N visible
07 Sep 5.0 22:21:35 10° NNW 22:26:44 36° NNE 22:26:44 36° NNE visible
08 Sep 6.0 00:12:26 10° NW 00:14:07 18° NW 00:14:07 18° NW visible
08 Sep 5.1 21:36:41 10° N 21:42:45 27° NE 21:42:45 27° NE visible
08 Sep 5.4 23:26:46 10° NW 23:30:08 30° NW 23:30:08 30° NW visible
09 Sep 5.5 20:52:05 10° N 20:56:48 18° NE 20:58:48 17° ENE visible
09 Sep 4.8 22:41:23 10° NNW 22:46:11 44° NNW 22:46:11 44° NNW visible
10 Sep 5.8 20:08:12 10° NNE 20:10:38 12° NNE 20:13:31 10° NE visible
10 Sep 4.5 21:56:13 10° NNW 22:02:17 47° NNE 22:02:17 47° NNE visible
10 Sep 6.0 23:47:35 10° NW 23:49:41 19° WNW 23:49:41 19° WNW visible
11 Sep 4.8 21:11:14 10° NNW 21:17:50 33° NE 21:18:26 33° ENE visible
11 Sep 5.3 23:01:43 10° NW 23:05:49 34° WNW 23:05:49 34° WNW visible
12 Sep 5.3 20:26:28 10° N 20:31:58 22° NE 20:34:37 19° ENE visible
12 Sep 4.4 22:16:11 10° NNW 22:22:01 58° NW 22:22:01 58° NW visible
13 Sep 5.6 19:42:05 10° N 19:45:55 15° NE 19:50:13 10° ENE visible
13 Sep 4.0 21:30:55 10° NNW 21:38:17 64° NE 21:38:17 64° NE visible
13 Sep 5.9 23:22:54 10° WNW 23:25:41 19° WNW 23:25:41 19° WNW visible
